Location: Unspecified
(0.0000°N, 0.0000°E)
Time: 03:02:47
(UTC+00:00)

Vanguard 1 Rocket - Pass Details

Date: 20 March 2018
Orbit: 652 x 4225 km, 34.3° (Epoch: 16 July)

Event Time Altitude Azimuth Distance (km) Brightness Sun altitude
Rises 09:51:44 0° 217° (SW) 5,454 11.2 56.1°
Reaches altitude 10° 09:57:28 10° 200° (SSW) 3,717 10.5 57.5°
Maximum altitude 10:02:54 17° 161° (SSE) 2,516 10.1 58.8°
Drops below altitude 10° 10:06:52 10° 120° (ESE) 2,587 10.3 59.8°
Sets 10:09:50 0° 98° (E) 3,245 10.7 60.6°
